Regional Weather Roundup
Issued by NWS

Home | Current Version | Previous Version | Graphics & Text | Print | Product List | Glossary On
Versions: 1 2 3 4 5 6 7 8 9 10 11 12 13 14 15 16 17 18 19 20 21 22 23 24 25 26 27 28 29 30 31 32 33 34 35 36 37 38 39 40 41 42 43 44 45 46 47 48 49 50
019
ASUS43 KOAX 260302
RWRNE

WEATHER ROUNDUP FOR NEBRASKA
NATIONAL WEATHER SERVICE OMAHA NE
1000 PM CDT WED APR 25 2018

NOTES: SATELLITE DATA IS BEING USED TO AUGMENT CLOUD COVER ABOVE
       12000 FEET.
       "FAIR" INDICATES FEW OR NO CLOUDS BELOW 12,000 FEET WITH NO
       SIGNIFICANT WEATHER AND/OR OBSTRUCTIONS TO VISIBILITY.


NEZ001>004-019>022-054>056-260400-
NEBRASKA PANHANDLE

CITY           SKY/WX    TMP DP  RH WIND       PRES   REMARKS
SCOTTSBLUFF    PTCLDY    50  35  56 E7        29.93R
ALLIANCE       PTCLDY    45  34  65 SE13      29.93S
CHADRON        MOCLDY    60  26  27 S18       29.85F
GORDON         FAIR      48  32  53 S7        29.90F
KIMBALL        MOCLDY    47  29  49 S9        30.00S
SIDNEY         MOCLDY    47  31  53 S12       29.99S
$$

NEZ057>060-069>072-079>082-260400-
SOUTHWEST NEBRASKA

CITY           SKY/WX    TMP DP  RH WIND       PRES   REMARKS
NORTH PLATTE   MOCLDY    47  34  60 S7        30.01S
IMPERIAL       PTCLDY    48  34  58 SE9       30.02S
LEXINGTON      PTCLDY    46  34  63 S7        30.03S
MCCOOK         CLEAR     49  33  54 S3        30.03F
OGALLALA       PTCLDY    52  35  52 S10       29.99F
$$

NEZ005>010-023>029-035>040-094-260400-
NORTH CENTRAL NEBRASKA

CITY           SKY/WX    TMP DP  RH WIND       PRES   REMARKS
VALENTINE      CLOUDY    56  28  34 S12       29.92S
AINSWORTH      MOCLDY    50  32  51 S12       29.95F
BROKEN BOW     PTCLDY    44  35  70 SE6       30.01R
O`NEILL        CLOUDY    50  34  53 S7        29.99S
ORD            MOCLDY    42  34  73 S6        30.01S
THEDFORD       CLOUDY    54  29  39 S10       29.97F
$$

NEZ041-046>049-061>064-073>077-083>087-260400-
SOUTH CENTRAL NEBRASKA

CITY           SKY/WX    TMP DP  RH WIND       PRES   REMARKS
GRAND ISLAND   CLOUDY    48  34  58 S7        30.04F
AURORA         CLEAR     47  32  55 S5        30.04F
HASTINGS       CLOUDY    48  34  58 S6        30.05F
HEBRON         CLEAR     43  36  76 S5        30.08S
HOLDREGE       CLOUDY    46  36  67 S8        30.04S
KEARNEY        CLOUDY    46  36  68 S6        30.05S
YORK             N/A     46  36  66 CALM      30.05F
$$

NEZ011>018-030>034-042>045-260400-
NORTHEAST NEBRASKA

CITY           SKY/WX    TMP DP  RH WIND       PRES   REMARKS
NORFOLK        CLOUDY    47  32  56 S7        30.01F
ALBION         CLOUDY    46  32  58 CALM      30.02S
BLAIR          CLEAR     49  32  51 SW5       30.03S
COLUMBUS       CLOUDY    47  34  60 S6        30.03F
FREMONT        CLEAR     51  36  55 SW3       30.04S
TEKAMAH        CLEAR     46  29  51 W6        30.02S
WAYNE          CLOUDY    43  35  71 S5        30.01F
$$

NEZ050>053-065>068-078-088>093-260400-
SOUTHEAST NEBRASKA

CITY           SKY/WX    TMP DP  RH WIND       PRES   REMARKS
LINCOLN        CLEAR     47  32  56 W5        30.07S
OMAHA EPPLEY   PTCLDY    50  36  58 CALM      30.03R
BEATRICE       CLEAR     45  37  76 CALM      30.06S
FALLS CITY     CLEAR     45  36  70 W6        30.05F
NEBRASKA CITY  CLEAR     43  39  86 SW8       30.05R
PLATTSMOUTH    CLEAR     47  37  65 SW7       30.04S
$$

NEZ044-045-051>053-067-260400-
OMAHA AREA

CITY           SKY/WX    TMP DP  RH WIND       PRES   REMARKS
OMAHA EPPLEY   PTCLDY    50  36  58 CALM      30.03R
BLAIR          CLEAR     49  32  51 SW5       30.03S
FREMONT        CLEAR     51  36  55 SW3       30.04S
MILLARD        CLEAR     53  36  52 W6        30.03S
PLATTSMOUTH    CLEAR     47  37  65 SW7       30.04S
WAHOO          FAIR      48  33  56 SW7       30.04S
$$




USA.gov is the U.S. government's official web portal to all federal, state and local government web resources and services.